When you browse on this site, cookies collect data to enhance your experience and personalize the content and advertising you see.
Visit our Privacy Policy to learn more. By continuing to use the site, you agree to this use of cookies and data.
  • en Suisse
  • Liste des pays
  • À 7 jours
  • Température de l'eau
  • Carte météo
  • Widgets météo
  • user-avatar
    Se connecter

    Météo par heure à Tignes

    Ce jour, 3 Juin, Mercredi

    Heure Température Précipitation Vent Pression Humidité
    00:00 +5°C° 0 mm 1 m/s 584 mmHg 89%
    01:00 +4°C° 0 mm 1 m/s 584 mmHg 89%
    02:00 +4°C° 0 mm 1 m/s 583 mmHg 89%
    03:00 +4°C° 0 mm 1 m/s 583 mmHg 88%
    04:00 +5°C° 0 mm 1 m/s 583 mmHg 84%
    05:00 +6°C° 0 mm 0 m/s 584 mmHg 79%
    06:00 +8°C° 0 mm 0 m/s 585 mmHg 75%
    07:00 +10°C° 0 mm 1 m/s 585 mmHg 67%
    08:00 +11°C° 0 mm 1 m/s 586 mmHg 59%
    09:00 +13°C° 0 mm 1 m/s 586 mmHg 51%
    10:00 +13°C° 0.1 mm 2 m/s 586 mmHg 50%
    11:00 +14°C° 0.1 mm 2 m/s 586 mmHg 50%
    12:00 +14°C° 0.1 mm 2 m/s 585 mmHg 50%
    13:00 +14°C° 0.5 mm 2 m/s 585 mmHg 54%
    14:00 +13°C° 0.5 mm 2 m/s 584 mmHg 59%
    15:00 +13°C° 0.5 mm 2 m/s 584 mmHg 64%
    16:00 +12°C° 1.3 mm 2 m/s 583 mmHg 72%
    17:00 +10°C° 1.3 mm 1 m/s 582 mmHg 81%
    18:00 +9°C° 1.3 mm 1 m/s 581 mmHg 90%
    19:00 +8°C° 0.8 mm 1 m/s 581 mmHg 91%
    20:00 +8°C° 0.8 mm 1 m/s 581 mmHg 91%
    21:00 +7°C° 0.8 mm 1 m/s 581 mmHg 92%
    22:00 +7°C° 0.1 mm 1 m/s 581 mmHg 92%
    23:00 +6°C° 0.1 mm 1 m/s 580 mmHg 93%

    Demain, 4 Juin, Jeudi

    Heure Température Précipitation Vent Pression Humidité
    00:00 +6°C° 0.1 mm 1 m/s 580 mmHg 93%
    01:00 +6°C° 0 mm 1 m/s 579 mmHg 93%
    02:00 +5°C° 0 mm 1 m/s 579 mmHg 93%
    03:00 +5°C° 0 mm 1 m/s 578 mmHg 93%
    04:00 +5°C° 0.2 mm 1 m/s 578 mmHg 93%
    05:00 +6°C° 0.2 mm 1 m/s 578 mmHg 93%
    06:00 +6°C° 0.2 mm 1 m/s 578 mmHg 93%
    07:00 +6°C° 1.2 mm 1 m/s 578 mmHg 94%
    08:00 +6°C° 1.2 mm 1 m/s 578 mmHg 95%
    09:00 +6°C° 1.2 mm 1 m/s 577 mmHg 95%
    10:00 +6°C° 1.5 mm 1 m/s 577 mmHg 96%
    11:00 +5°C° 1.5 mm 1 m/s 577 mmHg 96%
    12:00 +5°C° 1.5 mm 1 m/s 577 mmHg 96%
    13:00 +5°C° 1.9 mm 1 m/s 576 mmHg 97%
    14:00 +3°C° 1.9 mm 2 m/s 576 mmHg 97%
    15:00 +3°C° 1.9 mm 2 m/s 576 mmHg 97%
    16:00 +3°C° 0.7 mm 2 m/s 576 mmHg 96%
    17:00 +3°C° 0.7 mm 2 m/s 575 mmHg 96%
    18:00 +3°C° 0.7 mm 2 m/s 575 mmHg 95%
    19:00 +3°C° 0 mm 2 m/s 575 mmHg 94%
    20:00 +2°C° 0 mm 2 m/s 575 mmHg 94%
    21:00 +2°C° 0 mm 2 m/s 575 mmHg 94%
    22:00 +2°C° 0 mm 2 m/s 575 mmHg 94%
    23:00 0°C° 0 mm 3 m/s 575 mmHg 94%

    Après-demain, 5 Juin, Vendredi

    Heure Température Précipitation Vent Pression Humidité
    00:00 0°C° 0 mm 3 m/s 575 mmHg 94%
    01:00 0°C° 0.6 mm 3 m/s 575 mmHg 95%
    02:00 0°C° 0.6 mm 3 m/s 575 mmHg 95%
    03:00 0°C° 0.6 mm 3 m/s 575 mmHg 95%
    04:00 +1°C° 0.6 mm 3 m/s 576 mmHg 95%
    05:00 +1°C° 0.6 mm 3 m/s 576 mmHg 94%
    06:00 +1°C° 0.6 mm 3 m/s 576 mmHg 94%
    07:00 +2°C° 0.2 mm 3 m/s 577 mmHg 90%
    08:00 +2°C° 0.2 mm 3 m/s 578 mmHg 87%
    09:00 +3°C° 0.2 mm 3 m/s 578 mmHg 83%
    10:00 +4°C° 0.1 mm 3 m/s 579 mmHg 81%
    11:00 +5°C° 0.1 mm 3 m/s 579 mmHg 79%
    12:00 +5°C° 0.1 mm 3 m/s 580 mmHg 77%
    13:00 +5°C° 0 mm 3 m/s 580 mmHg 75%
    14:00 +7°C° 0 mm 3 m/s 580 mmHg 73%
    15:00 +7°C° 0 mm 3 m/s 580 mmHg 71%
    16:00 +5°C° 0 mm 3 m/s 580 mmHg 74%
    17:00 +5°C° 0 mm 3 m/s 580 mmHg 77%
    18:00 +4°C° 0 mm 3 m/s 580 mmHg 80%
    19:00 +4°C° 0 mm 2 m/s 580 mmHg 84%
    20:00 +3°C° 0 mm 2 m/s 580 mmHg 87%
    21:00 +1°C° 0 mm 2 m/s 580 mmHg 91%
    22:00 +1°C° 0 mm 2 m/s 580 mmHg 90%
    23:00 +1°C° 0 mm 2 m/s 580 mmHg 89%

    6 Juin, Samedi

    Heure Température Précipitation Vent Pression Humidité
    00:00 +1°C° 0 mm 2 m/s 580 mmHg 87%
    01:00 +2°C° 0 mm 1 m/s 580 mmHg 86%
    02:00 +2°C° 0 mm 1 m/s 580 mmHg 85%
    03:00 +1°C° 0 mm 1 m/s 580 mmHg 84%
    04:00 +3°C° 0 mm 1 m/s 581 mmHg 80%
    05:00 +4°C° 0 mm 1 m/s 582 mmHg 77%
    06:00 +6°C° 0 mm 1 m/s 582 mmHg 73%
    07:00 +7°C° 0 mm 1 m/s 583 mmHg 69%
    08:00 +9°C° 0 mm 1 m/s 584 mmHg 66%
    09:00 +9°C° 0 mm 2 m/s 584 mmHg 63%
    10:00 +10°C° 0.2 mm 2 m/s 585 mmHg 64%
    11:00 +10°C° 0.2 mm 2 m/s 585 mmHg 66%
    12:00 +10°C° 0.2 mm 2 m/s 585 mmHg 67%
    13:00 +10°C° 0.6 mm 2 m/s 584 mmHg 71%
    14:00 +10°C° 0.6 mm 2 m/s 584 mmHg 75%
    15:00 +10°C° 0.6 mm 2 m/s 584 mmHg 79%
    16:00 +9°C° 0.7 mm 2 m/s 583 mmHg 83%
    17:00 +9°C° 0.7 mm 1 m/s 583 mmHg 86%
    18:00 +9°C° 0.7 mm 1 m/s 583 mmHg 90%
    19:00 +8°C° 0.4 mm 1 m/s 583 mmHg 91%
    20:00 +7°C° 0.4 mm 1 m/s 583 mmHg 91%
    21:00 +6°C° 0.4 mm 1 m/s 582 mmHg 91%
    22:00 +5°C° 0.2 mm 1 m/s 582 mmHg 92%
    23:00 +5°C° 0.2 mm 1 m/s 581 mmHg 93%

    7 Juin, Dimanche

    Heure Température Précipitation Vent Pression Humidité
    00:00 +4°C° 0.2 mm 1 m/s 581 mmHg 94%
    01:00 +4°C° 0.2 mm 1 m/s 581 mmHg 94%
    02:00 +4°C° 0.2 mm 1 m/s 581 mmHg 94%
    03:00 +4°C° 0.2 mm 1 m/s 580 mmHg 95%
    04:00 +5°C° 0.1 mm 1 m/s 581 mmHg 94%
    05:00 +5°C° 0.1 mm 1 m/s 581 mmHg 93%
    06:00 +6°C° 0.1 mm 1 m/s 581 mmHg 92%
    07:00 +6°C° 0.6 mm 1 m/s 581 mmHg 92%
    08:00 +6°C° 0.6 mm 1 m/s 582 mmHg 93%
    09:00 +6°C° 0.6 mm 2 m/s 582 mmHg 93%
    10:00 +5°C° 1 mm 2 m/s 582 mmHg 93%
    11:00 +5°C° 1 mm 2 m/s 582 mmHg 93%
    12:00 +5°C° 1 mm 2 m/s 582 mmHg 93%
    13:00 +5°C° 0.1 mm 2 m/s 583 mmHg 90%
    14:00 +6°C° 0.1 mm 2 m/s 583 mmHg 86%
    15:00 +7°C° 0.1 mm 2 m/s 583 mmHg 83%
    16:00 +6°C° 0.1 mm 2 m/s 583 mmHg 84%
    17:00 +6°C° 0.1 mm 2 m/s 583 mmHg 86%
    18:00 +5°C° 0.1 mm 2 m/s 583 mmHg 87%
    19:00 +4°C° 0.1 mm 2 m/s 583 mmHg 89%
    20:00 +3°C° 0.1 mm 2 m/s 583 mmHg 91%
    21:00 +2°C° 0.1 mm 2 m/s 582 mmHg 93%
    22:00 +2°C° 0 mm 2 m/s 582 mmHg 92%
    23:00 +2°C° 0 mm 2 m/s 582 mmHg 92%

    8 Juin, Lundi

    Heure Température Précipitation Vent Pression Humidité
    00:00 +2°C° 0 mm 1 m/s 582 mmHg 91%
    01:00 +2°C° 0 mm 1 m/s 582 mmHg 91%
    02:00 +1°C° 0 mm 1 m/s 581 mmHg 90%
    03:00 0°C° 0 mm 1 m/s 581 mmHg 90%
    04:00 +2°C° 0 mm 1 m/s 582 mmHg 82%
    05:00 +3°C° 0 mm 1 m/s 582 mmHg 75%
    06:00 +4°C° 0 mm 1 m/s 583 mmHg 68%
    07:00 +5°C° 0 mm 1 m/s 584 mmHg 62%
    08:00 +7°C° 0 mm 1 m/s 584 mmHg 56%
    09:00 +7°C° 0 mm 2 m/s 585 mmHg 49%
    10:00 +8°C° 0.1 mm 2 m/s 586 mmHg 50%
    11:00 +9°C° 0.1 mm 2 m/s 586 mmHg 50%
    12:00 +9°C° 0.1 mm 3 m/s 586 mmHg 50%
    13:00 +9°C° 0.2 mm 3 m/s 586 mmHg 52%
    14:00 +9°C° 0.2 mm 3 m/s 586 mmHg 55%
    15:00 +9°C° 0.2 mm 3 m/s 585 mmHg 57%
    16:00 +8°C° 0.1 mm 2 m/s 585 mmHg 60%
    17:00 +7°C° 0.1 mm 2 m/s 585 mmHg 63%
    18:00 +6°C° 0.1 mm 2 m/s 585 mmHg 65%
    19:00 +4°C° 0 mm 2 m/s 584 mmHg 73%
    20:00 +3°C° 0 mm 2 m/s 584 mmHg 80%
    21:00 +1°C° 0 mm 2 m/s 584 mmHg 88%
    22:00 +2°C° 0 mm 1 m/s 584 mmHg 87%
    23:00 +1°C° 0 mm 1 m/s 584 mmHg 86%
    Voir plus